SWR842Y LSZH-LIPZ

Flight info

Callsign SWR842Y
Flight time 0h 47m
Altitude 35000
Route DEGES Y170 ARGAX DCT RESIA DCT ADOSA L612 ALBET
Aircraft A20N/M-SDE2E3FGHIRWXY/LB1

Departure

Time 2026-04-26 20:43
Airport Zürich Airport (LSZH)

Arrival

Time 2026-04-26 21:30
Airport Venice Marco Polo Airport (LIPZ)
Time Latitude Longitude Altitude Speed Heading
2026-04-26 20:06 47.46187 8.55378 1398 ft 0 kts 185°
2026-04-26 20:10 47.46190 8.55379 1397 ft 3 kts 185°
2026-04-26 20:10 47.46215 8.55382 1400 ft 4 kts 185°
2026-04-26 20:10 47.46242 8.55386 1403 ft 4 kts 185°
2026-04-26 20:10 47.46259 8.55389 1400 ft 0 kts 185°
2026-04-26 20:11 47.46222 8.55332 1397 ft 15 kts 296°
2026-04-26 20:11 47.46275 8.55213 1401 ft 8 kts 285°
2026-04-26 20:11 47.46281 8.55144 1407 ft 14 kts 276°
2026-04-26 20:12 47.46199 8.54959 1399 ft 15 kts 161°
2026-04-26 20:12 47.46100 8.55014 1397 ft 15 kts 156°
2026-04-26 20:12 47.46001 8.55086 1396 ft 15 kts 151°
2026-04-26 20:12 47.45906 8.55163 1396 ft 15 kts 153°
2026-04-26 20:13 47.45923 8.55148 1398 ft 15 kts 355°
2026-04-26 20:13 47.46021 8.55084 1399 ft 15 kts 335°
2026-04-26 20:13 47.46002 8.55108 1398 ft 15 kts 275°
2026-04-26 20:13 47.45910 8.55161 1397 ft 15 kts 155°
2026-04-26 20:14 47.45812 8.55229 1400 ft 15 kts 155°
2026-04-26 20:14 47.45837 8.55211 1398 ft 15 kts 344°
2026-04-26 20:14 47.45880 8.55177 1402 ft 8 kts 353°
2026-04-26 20:14 47.45819 8.55223 1402 ft 15 kts 156°
2026-04-26 20:15 47.45718 8.55283 1398 ft 15 kts 159°
2026-04-26 20:15 47.45620 8.55341 1400 ft 10 kts 156°
2026-04-26 20:15 47.45543 8.55396 1403 ft 15 kts 137°
2026-04-26 20:15 47.45526 8.55514 1399 ft 15 kts 96°
2026-04-26 20:16 47.45514 8.55672 1399 ft 14 kts 96°
2026-04-26 20:16 47.45464 8.55697 1398 ft 7 kts 186°
2026-04-26 20:16 47.45430 8.55692 1397 ft 0 kts 186°
2026-04-26 20:35 47.45433 8.55692 1407 ft 3 kts 186°
2026-04-26 20:36 47.45459 8.55697 1404 ft 3 kts 186°
2026-04-26 20:36 47.45481 8.55697 1402 ft 4 kts 162°
2026-04-26 20:36 47.45503 8.55678 1406 ft 4 kts 128°
2026-04-26 20:36 47.45516 8.55644 1405 ft 4 kts 100°
2026-04-26 20:37 47.45518 8.55610 1407 ft 1 kts 96°
2026-04-26 20:37 47.45518 8.55609 1407 ft 0 kts 96°
2026-04-26 20:39 47.45518 8.55619 1406 ft 3 kts 96°
2026-04-26 20:39 47.45516 8.55646 1401 ft 5 kts 96°
2026-04-26 20:39 47.45507 8.55755 1403 ft 10 kts 95°
2026-04-26 20:39 47.45529 8.55850 1407 ft 11 kts 32°
2026-04-26 20:40 47.45605 8.55839 1406 ft 11 kts
2026-04-26 20:40 47.45635 8.55928 1400 ft 11 kts 88°
2026-04-26 20:40 47.45622 8.56061 1396 ft 15 kts 101°
2026-04-26 20:40 47.45610 8.56215 1396 ft 17 kts 87°
2026-04-26 20:41 47.45671 8.56279 1403 ft 12 kts
2026-04-26 20:41 47.45759 8.56282 1401 ft 13 kts 359°
2026-04-26 20:41 47.45851 8.56286 1404 ft 14 kts
2026-04-26 20:41 47.45951 8.56302 1409 ft 16 kts
2026-04-26 20:42 47.46069 8.56340 1408 ft 19 kts 26°
2026-04-26 20:42 47.46172 8.56403 1400 ft 14 kts 333°
2026-04-26 20:42 47.46237 8.56297 1397 ft 19 kts 316°
2026-04-26 20:42 47.46558 8.55861 1397 ft 105 kts 316°
2026-04-26 20:43 47.47267 8.54904 1488 ft 160 kts 317°
2026-04-26 20:43 47.48056 8.53877 2469 ft 149 kts 320°
2026-04-26 20:43 47.48860 8.52837 3221 ft 156 kts 323°
2026-04-26 20:43 47.49703 8.51836 3848 ft 161 kts 329°
2026-04-26 20:44 47.50663 8.50925 4491 ft 167 kts 332°
2026-04-26 20:44 47.51697 8.49965 5012 ft 183 kts 331°
2026-04-26 20:44 47.52668 8.48723 5615 ft 197 kts 307°
2026-04-26 20:44 47.53281 8.46800 6140 ft 216 kts 287°
2026-04-26 20:45 47.53565 8.44592 6743 ft 229 kts 269°
2026-04-26 20:45 47.53174 8.42213 7196 ft 251 kts 243°
2026-04-26 20:45 47.52257 8.39898 7799 ft 265 kts 239°
2026-04-26 20:45 47.51366 8.37541 8857 ft 260 kts 243°
2026-04-26 20:46 47.50590 8.35122 9853 ft 263 kts 246°
2026-04-26 20:46 47.49719 8.32697 10653 ft 264 kts 229°
2026-04-26 20:46 47.48266 8.31094 11617 ft 266 kts 201°
2026-04-26 20:46 47.46398 8.30709 12346 ft 278 kts 174°
2026-04-26 20:47 47.44564 8.31694 12969 ft 291 kts 146°
2026-04-26 20:47 47.43561 8.33047 13434 ft 297 kts 128°
2026-04-26 20:47 47.42482 8.36855 14247 ft 309 kts 95°
2026-04-26 20:47 47.42660 8.39989 15069 ft 304 kts 70°
2026-04-26 20:48 47.43603 8.42697 16054 ft 292 kts 49°
2026-04-26 20:48 47.44885 8.45019 16790 ft 296 kts 52°
2026-04-26 20:48 47.45738 8.47731 17650 ft 293 kts 74°
2026-04-26 20:48 47.45831 8.50713 18702 ft 284 kts 94°
2026-04-26 20:49 47.45594 8.53683 19093 ft 298 kts 92°
2026-04-26 20:49 47.45574 8.56700 19482 ft 302 kts 82°
2026-04-26 20:49 47.45772 8.59798 20073 ft 304 kts 80°
2026-04-26 20:49 47.45977 8.62958 20646 ft 307 kts 81°
2026-04-26 20:50 47.46141 8.66120 21196 ft 311 kts 82°
2026-04-26 20:50 47.46230 8.69340 21689 ft 318 kts 91°
2026-04-26 20:50 47.45667 8.72520 22173 ft 327 kts 116°
2026-04-26 20:50 47.44301 8.75264 22634 ft 334 kts 134°
2026-04-26 20:51 47.42611 8.77620 23116 ft 339 kts 138°
2026-04-26 20:51 47.40814 8.79944 23628 ft 343 kts 138°
2026-04-26 20:51 47.39014 8.82295 24049 ft 347 kts 138°
2026-04-26 20:51 47.37211 8.84687 24528 ft 349 kts 137°
2026-04-26 20:52 47.35411 8.87106 24953 ft 351 kts 137°
2026-04-26 20:52 47.33614 8.89545 25406 ft 353 kts 137°
2026-04-26 20:52 47.31806 8.92011 25824 ft 356 kts 137°
2026-04-26 20:52 47.30005 8.94470 26224 ft 358 kts 137°
2026-04-26 20:53 47.28181 8.96961 26664 ft 360 kts 137°
2026-04-26 20:53 47.26326 8.99493 27026 ft 363 kts 136°
2026-04-26 20:53 47.24474 9.02031 27418 ft 365 kts 136°
2026-04-26 20:53 47.22602 9.04588 27797 ft 367 kts 137°
2026-04-26 20:54 47.20721 9.07149 28175 ft 370 kts 137°
2026-04-26 20:54 47.18840 9.09705 28583 ft 371 kts 137°
2026-04-26 20:54 47.16922 9.12305 28936 ft 374 kts 137°
2026-04-26 20:54 47.15003 9.14903 29284 ft 376 kts 137°
2026-04-26 20:55 47.13080 9.17503 29593 ft 378 kts 137°
2026-04-26 20:55 47.11124 9.20144 29889 ft 381 kts 137°
2026-04-26 20:55 47.09169 9.22783 30246 ft 383 kts 137°
2026-04-26 20:55 47.07238 9.25389 30570 ft 384 kts 137°
2026-04-26 20:56 47.05259 9.28067 30867 ft 386 kts 137°
2026-04-26 20:56 47.03248 9.30784 31152 ft 389 kts 137°
2026-04-26 20:56 47.01289 9.33418 31456 ft 390 kts 137°
2026-04-26 20:56 46.99280 9.36117 31767 ft 391 kts 137°
2026-04-26 20:57 46.97261 9.38825 32033 ft 394 kts 138°
2026-04-26 20:57 46.95248 9.41527 32288 ft 396 kts 138°
2026-04-26 20:57 46.93201 9.44276 32577 ft 397 kts 138°
2026-04-26 20:57 46.91158 9.47014 32860 ft 399 kts 138°
2026-04-26 20:58 46.89111 9.49755 33060 ft 402 kts 138°
2026-04-26 20:58 46.87076 9.52474 33325 ft 403 kts 138°
2026-04-26 20:58 46.85657 9.54370 33478 ft 405 kts 138°
2026-04-26 20:58 46.82906 9.58034 33810 ft 407 kts 139°
2026-04-26 20:59 46.80846 9.60771 34093 ft 408 kts 139°
2026-04-26 20:59 46.78696 9.63624 34305 ft 410 kts 139°
2026-04-26 20:59 46.76572 9.66444 34436 ft 415 kts 139°
2026-04-26 21:00 46.72974 9.71217 34549 ft 425 kts 139°
2026-04-26 21:00 46.68541 9.77087 34682 ft 437 kts 139°
2026-04-26 21:01 46.63995 9.83093 34823 ft 449 kts 139°
2026-04-26 21:01 46.59274 9.89313 34943 ft 461 kts 139°
2026-04-26 21:02 46.54483 9.95610 35103 ft 470 kts 139°
2026-04-26 21:02 46.52035 9.98822 35262 ft 471 kts 139°
2026-04-26 21:02 46.49626 10.01979 35259 ft 469 kts 139°
2026-04-26 21:03 46.44663 10.08119 35241 ft 468 kts 142°
2026-04-26 21:03 46.39638 10.14154 35218 ft 467 kts 142°
2026-04-26 21:04 46.34675 10.20106 35193 ft 467 kts 142°
2026-04-26 21:04 46.29657 10.26097 35173 ft 466 kts 142°
2026-04-26 21:05 46.24647 10.32064 35158 ft 466 kts 142°
2026-04-26 21:05 46.19623 10.38031 35157 ft 466 kts 142°
2026-04-26 21:06 46.14617 10.43964 35138 ft 465 kts 142°
2026-04-26 21:06 46.12130 10.46906 34795 ft 464 kts 143°
2026-04-26 21:06 46.09617 10.49876 34132 ft 466 kts 143°
2026-04-26 21:06 46.07137 10.52802 33173 ft 471 kts 143°
2026-04-26 21:07 46.04547 10.55853 32075 ft 477 kts 143°
2026-04-26 21:07 46.01992 10.58858 30987 ft 484 kts 142°
2026-04-26 21:07 45.99364 10.61947 29918 ft 489 kts 142°
2026-04-26 21:07 45.96739 10.65031 28971 ft 488 kts 142°
2026-04-26 21:08 45.94116 10.68111 28264 ft 482 kts 142°
2026-04-26 21:08 45.91526 10.71147 27587 ft 477 kts 142°
2026-04-26 21:08 45.88968 10.74141 26901 ft 472 kts 142°
2026-04-26 21:08 45.86566 10.77339 26228 ft 470 kts 134°
2026-04-26 21:09 45.84424 10.80847 25574 ft 466 kts 131°
2026-04-26 21:09 45.82367 10.84384 24974 ft 461 kts 131°
2026-04-26 21:09 45.80311 10.87929 24333 ft 458 kts 131°
2026-04-26 21:09 45.78282 10.91391 23712 ft 454 kts 131°
2026-04-26 21:10 45.76232 10.94853 22988 ft 450 kts 131°
2026-04-26 21:10 45.74243 10.98186 22637 ft 438 kts 132°
2026-04-26 21:10 45.72267 11.01485 22456 ft 423 kts 132°
2026-04-26 21:10 45.70381 11.04629 22301 ft 408 kts 132°
2026-04-26 21:11 45.68578 11.07633 22144 ft 394 kts 132°
2026-04-26 21:11 45.66825 11.10553 22014 ft 381 kts 132°
2026-04-26 21:11 45.65145 11.13356 21764 ft 371 kts 131°
2026-04-26 21:11 45.63460 11.16173 21059 ft 375 kts 131°
2026-04-26 21:12 45.61728 11.19057 20251 ft 383 kts 131°
2026-04-26 21:12 45.59968 11.21971 19566 ft 387 kts 131°
2026-04-26 21:12 45.58215 11.24868 19074 ft 384 kts 131°
2026-04-26 21:12 45.56480 11.27733 18611 ft 380 kts 131°
2026-04-26 21:13 45.54761 11.30568 18121 ft 377 kts 131°
2026-04-26 21:13 45.53082 11.33349 17601 ft 374 kts 131°
2026-04-26 21:13 45.51365 11.36194 17116 ft 370 kts 131°
2026-04-26 21:13 45.49682 11.38972 16627 ft 367 kts 131°
2026-04-26 21:14 45.48042 11.41667 16168 ft 363 kts 131°
2026-04-26 21:14 45.46393 11.44370 15695 ft 360 kts 131°
2026-04-26 21:14 45.44734 11.47081 15242 ft 357 kts 131°
2026-04-26 21:14 45.43147 11.49673 14778 ft 354 kts 131°
2026-04-26 21:15 45.41528 11.52328 14343 ft 351 kts 131°
2026-04-26 21:15 45.39941 11.54929 13896 ft 348 kts 131°
2026-04-26 21:15 45.38346 11.57539 13397 ft 345 kts 131°
2026-04-26 21:15 45.36786 11.60093 12944 ft 342 kts 131°
2026-04-26 21:16 45.35291 11.62705 12457 ft 339 kts 121°
2026-04-26 21:16 45.34445 11.65789 11977 ft 336 kts 99°
2026-04-26 21:16 45.34422 11.69064 11549 ft 331 kts 85°
2026-04-26 21:16 45.34593 11.72137 11226 ft 326 kts 85°
2026-04-26 21:17 45.34743 11.75033 11103 ft 324 kts 85°
2026-04-26 21:17 45.34902 11.78293 10933 ft 315 kts 86°
2026-04-26 21:17 45.35030 11.81333 10595 ft 303 kts 90°
2026-04-26 21:17 45.34645 11.84052 10492 ft 282 kts 113°
2026-04-26 21:18 45.33595 11.86343 10385 ft 277 kts 131°
2026-04-26 21:18 45.32297 11.88394 10008 ft 280 kts 131°
2026-04-26 21:18 45.30848 11.90188 9517 ft 283 kts 151°
2026-04-26 21:18 45.29023 11.90961 9049 ft 285 kts 176°
2026-04-26 21:19 45.27103 11.90528 8574 ft 287 kts 202°
2026-04-26 21:19 45.25459 11.88924 8097 ft 289 kts 225°
2026-04-26 21:19 45.24088 11.86859 7626 ft 288 kts 219°
2026-04-26 21:19 45.22349 11.85562 7168 ft 279 kts 193°
2026-04-26 21:20 45.20472 11.85516 6832 ft 266 kts 165°
2026-04-26 21:20 45.18864 11.86660 6548 ft 256 kts 139°
2026-04-26 21:20 45.17749 11.88587 6245 ft 253 kts 118°
2026-04-26 21:20 45.17194 11.90915 6001 ft 246 kts 97°
2026-04-26 21:21 45.17249 11.93276 5868 ft 237 kts 77°
2026-04-26 21:21 45.17930 11.95365 5741 ft 241 kts 46°
2026-04-26 21:21 45.19317 11.96691 5626 ft 242 kts 27°
2026-04-26 21:21 45.20815 11.97772 5507 ft 240 kts 30°
2026-04-26 21:22 45.22202 11.99068 5369 ft 239 kts 38°
2026-04-26 21:22 45.23468 12.00551 5259 ft 238 kts 42°
2026-04-26 21:22 45.24716 12.02139 5143 ft 237 kts 42°
2026-04-26 21:23 45.26986 12.05035 5262 ft 209 kts 43°
2026-04-26 21:23 45.28020 12.06355 5315 ft 193 kts 43°
2026-04-26 21:23 45.29016 12.07627 5342 ft 195 kts 43°
2026-04-26 21:23 45.29997 12.08881 5223 ft 194 kts 43°
2026-04-26 21:24 45.30977 12.10133 5053 ft 184 kts 43°
2026-04-26 21:24 45.31903 12.11315 4861 ft 170 kts 43°
2026-04-26 21:24 45.32772 12.12427 4675 ft 172 kts 43°
2026-04-26 21:24 45.33661 12.13563 4454 ft 170 kts 42°
2026-04-26 21:25 45.34517 12.14655 4256 ft 167 kts 42°
2026-04-26 21:25 45.35380 12.15763 4034 ft 168 kts 41°
2026-04-26 21:25 45.36238 12.16861 3806 ft 167 kts 41°
2026-04-26 21:25 45.37095 12.17958 3598 ft 167 kts 41°
2026-04-26 21:26 45.37956 12.19061 3381 ft 166 kts 41°
2026-04-26 21:26 45.38819 12.20166 3159 ft 166 kts 41°
2026-04-26 21:26 45.39677 12.21266 2940 ft 166 kts 41°
2026-04-26 21:26 45.40517 12.22344 2723 ft 160 kts 41°
2026-04-26 21:27 45.41300 12.23348 2501 ft 144 kts 41°
2026-04-26 21:27 45.42022 12.24274 2322 ft 138 kts 41°
2026-04-26 21:27 45.42738 12.25192 2135 ft 138 kts 42°
2026-04-26 21:27 45.43454 12.26111 1957 ft 138 kts 42°
2026-04-26 21:28 45.44161 12.27017 1768 ft 138 kts 42°
2026-04-26 21:28 45.44866 12.27919 1629 ft 137 kts 43°
2026-04-26 21:28 45.45567 12.28849 1436 ft 140 kts 44°
2026-04-26 21:28 45.46290 12.29776 1189 ft 137 kts 41°
2026-04-26 21:29 45.47000 12.30688 842 ft 138 kts 44°
2026-04-26 21:29 45.47708 12.31597 580 ft 134 kts 41°
2026-04-26 21:29 45.48394 12.32484 353 ft 134 kts 42°
2026-04-26 21:29 45.49072 12.33333 153 ft 133 kts 42°
2026-04-26 21:30 45.49758 12.34226 18 ft 132 kts 44°
2026-04-26 21:30 45.50324 12.34951 14 ft 80 kts 43°
2026-04-26 21:30 45.50604 12.35294 14 ft 35 kts 33°
2026-04-26 21:30 45.50802 12.35428 15 ft 26 kts 11°
2026-04-26 21:31 45.50849 12.35441 15 ft 7 kts 11°
2026-04-26 21:31 45.50904 12.35448 16 ft 9 kts 347°
2026-04-26 21:31 45.50935 12.35407 16 ft 8 kts 288°
2026-04-26 21:31 45.50958 12.35322 18 ft 11 kts 292°
2026-04-26 21:32 45.50956 12.35212 16 ft 13 kts 234°
2026-04-26 21:32 45.50886 12.35117 16 ft 15 kts 220°
2026-04-26 21:32 45.50797 12.35005 15 ft 18 kts 222°
2026-04-26 21:32 45.50696 12.34872 15 ft 21 kts 223°
2026-04-26 21:33 45.50591 12.34734 15 ft 20 kts 223°
2026-04-26 21:33 45.50507 12.34612 16 ft 17 kts 247°
2026-04-26 21:33 45.50546 12.34489 15 ft 16 kts 332°
2026-04-26 21:33 45.50604 12.34358 16 ft 17 kts 299°
2026-04-26 21:34 45.50618 12.34253 15 ft 8 kts 265°
2026-04-26 21:34 45.50616 12.34211 15 ft 0 kts 267°